Eastover, SC

8:33 PM EST on December 17, 2017 (GMT -0500)
McEntire Angs

Weather History for KMMT - September, 2012

Change the Weather History Date:

Tuesday, September 18, 2012

  Actual Average Record
Temperature  
Mean Temperature 75 °F -  
Max Temperature 80 °F 81 °F 95 °F (2005)
Min Temperature 70 °F 62 °F 51 °F (2001)
Cooling Degree Days 10    
Growing Degree Days 25 (Base 50)    
Moisture  
Dew Point 72 °F    
Average Humidity 90    
Maximum Humidity 100    
Minimum Humidity 74    
Precipitation  
Precipitation 0.07 in - - ()
Sea Level Pressure  
Sea Level Pressure 29.81 in    
Wind  
Wind Speed 8 mph (South)    
Max Wind Speed 14 mph    
Max Gust Speed 26 mph    
Visibility 10 miles    
Events Rain    
Averages and records for this station are not official NWS values.
T = Trace of Precipitation, MM = Missing Value Source: NWS Daily Summary

Daily Weather History Graph

Daily Weather History Graph

Search for Another Location

Airport or City:

Trip Planner

Search our weather history database for the weather conditions in past years. The results will help you decide how hot, cold, wet, or windy it might be!

Date:

Astronomy

Sep. 18, 2012 Rise Set
Actual Time 7:08 AM EDT 7:24 PM EDT
Civil Twilight 6:43 AM EDT 7:49 PM EDT
Nautical Twilight 6:14 AM EDT 8:19 PM EDT
Astronomical Twilight 5:45 AM EDT 8:48 PM EDT
Moon 9:55 AM EDT 8:59 PM EDT
Length of Visible Light 13h 05m
Length of Day
12h 16m
Waxing Crescent, 9% of the Moon is Illuminated
Sep 18
Waxing Crescent
Sep 22
First Quarter
Sep 29
Full
Oct 8
Last Quarter
Oct 15
New

Hourly Weather History & Observations

Time (EDT) Temp. Heat Index Dew Point Humidity Pressure Visibility Wind Dir Wind Speed Gust Speed Precip Events Conditions
12:55 AM 72.1 °F - 70.0 °F 93% 29.91 in 10.0 mi SE 6.9 mph - N/A   Partly Cloudy
1:55 AM 73.6 °F - 70.7 °F 91% 29.90 in 10.0 mi SSE 10.4 mph - N/A   Mostly Cloudy
2:50 AM 73.4 °F - 71.6 °F 94% 29.87 in 10.0 mi SSE 10.4 mph - N/A   Mostly Cloudy
2:53 AM 73.4 °F - 71.6 °F 94% 29.87 in 10.0 mi SSE 10.4 mph - N/A   Mostly Cloudy
2:54 AM 73.4 °F - 71.6 °F 94% 29.87 in 10.0 mi SSE 10.4 mph - N/A   Mostly Cloudy
2:55 AM 74.1 °F - 71.4 °F 91% 29.87 in 10.0 mi SSE 9.2 mph - N/A   Mostly Cloudy
2:56 AM 73.4 °F - 71.6 °F 94% 29.87 in 10.0 mi SSE 8.1 mph - N/A   Mostly Cloudy
3:55 AM 74.1 °F - 72.0 °F 93% 29.83 in 10.0 mi SE 6.9 mph - N/A   Partly Cloudy
4:55 AM 74.7 °F - 72.3 °F 92% 29.83 in 10.0 mi SSE 9.2 mph - N/A   Scattered Clouds
5:48 AM 75.2 °F - 71.6 °F 89% 29.82 in 10.0 mi SSE 10.4 mph - N/A   Overcast
5:50 AM 75.2 °F - 71.6 °F 89% 29.82 in 10.0 mi SSE 10.4 mph - N/A   Mostly Cloudy
5:55 AM 75.2 °F - 72.3 °F 91% 29.82 in 10.0 mi SSE 8.1 mph - N/A   Overcast
6:29 AM 75.2 °F - 71.6 °F 89% 29.82 in 10.0 mi South 9.2 mph - N/A   Overcast
6:33 AM 75.2 °F - 71.6 °F 89% 29.82 in 10.0 mi SSE 9.2 mph - N/A Rain Light Rain
6:35 AM 75.2 °F - 71.6 °F 89% 29.81 in 10.0 mi SSE 10.4 mph - N/A Rain Light Rain
6:39 AM 75.2 °F - 71.6 °F 89% 29.82 in 10.0 mi South 9.2 mph - N/A Rain Light Rain
6:42 AM 75.2 °F - 71.6 °F 89% 29.81 in 10.0 mi South 9.2 mph - N/A   Overcast
6:50 AM 75.2 °F - 71.6 °F 89% 29.82 in 10.0 mi South 9.2 mph - N/A   Overcast
6:53 AM 75.2 °F - 71.6 °F 89% 29.81 in 10.0 mi South 9.2 mph - N/A   Overcast
6:54 AM 75.2 °F - 73.4 °F 94% 29.82 in 10.0 mi South 9.2 mph - N/A   Overcast
6:55 AM 75.0 °F - 72.5 °F 92% 29.81 in 10.0 mi South 9.2 mph - 0.00 in   Overcast
6:56 AM 75.2 °F - 73.4 °F 94% 29.81 in 10.0 mi South 9.2 mph - N/A   Overcast
7:03 AM 75.2 °F - 73.4 °F 94% 29.81 in 10.0 mi SSE 6.9 mph - N/A   Overcast
7:06 AM 75.2 °F - 73.4 °F 94% 29.81 in 10.0 mi South 8.1 mph - N/A   Overcast
7:08 AM 75.2 °F - 73.4 °F 94% 29.81 in 10.0 mi SSE 8.1 mph - N/A   Overcast
7:09 AM 75.2 °F - 73.4 °F 94% 29.81 in 10.0 mi SSE 8.1 mph - N/A   Overcast
7:13 AM 75.2 °F - 73.4 °F 94% 29.81 in 10.0 mi SSE 9.2 mph - N/A   Overcast
7:55 AM 75.0 °F - 72.9 °F 93% 29.82 in 10.0 mi SSE 6.9 mph - N/A   Overcast
8:55 AM 76.1 °F - 72.7 °F 89% 29.82 in 10.0 mi South 9.2 mph - N/A   Overcast
9:37 AM 77.0 °F - 73.4 °F 89% 29.81 in 10.0 mi South 11.5 mph 19.6 mph N/A   Overcast
9:55 AM 78.4 °F - 72.5 °F 82% 29.81 in 10.0 mi South 10.4 mph - N/A   Overcast
10:32 AM 78.8 °F - 71.6 °F 78% 29.80 in 10.0 mi SSW 10.4 mph - N/A Rain Light Rain
10:46 AM 78.8 °F - 73.4 °F 83% 29.80 in 10.0 mi South 12.7 mph - N/A   Mostly Cloudy
10:55 AM 80.2 °F 84.6 °F 73.2 °F 79% 29.80 in 10.0 mi South 13.8 mph 20.7 mph 0.00 in   Overcast
11:55 AM 80.2 °F 84.3 °F 72.3 °F 77% 29.80 in 10.0 mi SSW 10.4 mph 20.7 mph N/A   Overcast
12:20 PM 80.6 °F 84.6 °F 71.6 °F 74% 29.80 in 7.0 mi SSW 13.8 mph 26.5 mph N/A Rain Light Rain
12:47 PM 77.0 °F - 73.4 °F 89% 29.79 in 10.0 mi SW 10.4 mph 19.6 mph N/A   Overcast
12:55 PM 77.4 °F - 73.2 °F 87% 29.79 in 10.0 mi SW 12.7 mph - 0.06 in   Overcast
1:12 PM 77.0 °F - 71.6 °F 83% 29.79 in 10.0 mi SW 11.5 mph 23.0 mph N/A   Overcast
1:55 PM 77.9 °F - 72.5 °F 83% 29.78 in 10.0 mi SSW 9.2 mph - 0.01 in Rain Light Rain
2:12 PM 77.0 °F - 73.4 °F 89% 29.76 in 10.0 mi South 8.1 mph - N/A   Overcast
2:55 PM 77.5 °F - 73.2 °F 86% 29.76 in 10.0 mi SW 9.2 mph - 0.00 in Rain Light Rain
3:26 PM 77.0 °F - 73.4 °F 89% 29.74 in 10.0 mi South 12.7 mph - N/A   Overcast
3:55 PM 78.1 °F - 71.4 °F 80% 29.75 in 10.0 mi SSW 9.2 mph - 0.00 in   Overcast
4:55 PM 77.5 °F - 70.9 °F 80% 29.77 in 10.0 mi South 5.8 mph - N/A   Mostly Cloudy
5:15 PM 77.0 °F - 69.8 °F 78% 29.76 in 10.0 mi SW 5.8 mph - N/A   Overcast
5:55 PM 76.8 °F - 69.8 °F 79% 29.76 in 10.0 mi South 6.9 mph - N/A   Mostly Cloudy
6:55 PM 75.4 °F - 69.3 °F 81% 29.76 in 10.0 mi South 6.9 mph - N/A   Mostly Cloudy
7:55 PM 73.2 °F - 69.4 °F 88% 29.78 in 10.0 mi South 3.5 mph - N/A   Overcast
8:55 PM 71.4 °F - 69.6 °F 94% 29.78 in 10.0 mi Calm Calm - N/A   Overcast
9:55 PM 70.5 °F - 69.6 °F 97% 29.81 in 10.0 mi Calm Calm - N/A   Overcast
10:55 PM 71.2 °F - 70.7 °F 98% 29.82 in 10.0 mi SSE 3.5 mph - N/A   Overcast
11:06 PM 71.6 °F - 71.6 °F 100% 29.83 in 10.0 mi SSE 3.5 mph - N/A   Overcast
11:16 PM 71.6 °F - 71.6 °F 100% 29.83 in 10.0 mi Calm Calm - N/A Rain Light Rain
11:18 PM 71.6 °F - 71.6 °F 100% 29.84 in 10.0 mi Calm Calm - N/A Rain Light Rain
11:25 PM 71.6 °F - 71.6 °F 100% 29.84 in 10.0 mi West 4.6 mph - N/A Rain Light Rain
11:34 PM 71.6 °F - 71.6 °F 100% 29.84 in 10.0 mi Calm Calm - N/A   Light Drizzle
11:35 PM 71.6 °F - 71.6 °F 100% 29.84 in 10.0 mi WSW 3.5 mph - N/A   Overcast
11:38 PM 71.6 °F - 71.6 °F 100% 29.84 in 10.0 mi WSW 4.6 mph - N/A   Overcast
11:51 PM 71.6 °F - 71.6 °F 100% 29.85 in 10.0 mi SSW 4.6 mph - N/A   Light Drizzle
11:55 PM 71.6 °F - 70.7 °F 97% 29.85 in 10.0 mi Calm Calm - 0.00 in Rain Light Rain